KB3YPI Weather Reports


time (UTC)temp
C
wind
direction
speed
KPH
gust
KPH
rain 1hr
cm
rain 24hr
cm
rain mn
cm
humidity
%
barometer
mb
20260504081526 2 250 0.0 0.0 0.00 0.00 0.00 89 1013.7
20260504081026 2 250 0.0 0.0 0.00 0.00 0.00 89 1013.7
20260504080625 2 250 0.0 0.0 0.00 0.00 0.00 89 1013.7
20260504050525 5 250 0.0 0.0 0.00 0.00 0.00 84 1013.7
20260504050024 5 250 0.0 0.0 0.00 0.00 0.00 83 1013.7
20260504045523 5 250 0.0 0.0 0.00 0.00 0.00 82 1013.7
20260504045023 5 250 0.0 0.0 0.00 0.00 0.00 82 1013.7
20260504044533 5 250 0.0 0.0 0.00 0.00 0.00 82 1013.7
20260504044022 5 250 0.0 0.0 0.00 0.00 0.00 81 1013.6
20260504043522 5 250 0.0 0.0 0.00 0.00 0.00 81 1013.6
20260504043024 5 250 0.0 0.0 0.00 0.00 0.00 81 1013.6
20260504042521 5 250 0.0 0.0 0.00 0.00 0.00 80 1013.6
20260504042020 5 250 0.0 0.0 0.00 0.00 0.00 79 1013.6
20260504041520 5 250 0.0 0.0 0.00 0.00 0.00 79 1013.6
20260504041019 5 250 0.0 0.0 0.00 0.00 0.00 79 1013.6
20260504040519 5 250 0.0 0.0 0.00 0.00 0.00 78 1013.6
20260504040015 5 250 0.0 0.0 0.00 0.00 0.00 79 1013.6
20260504035515 5 250 0.0 0.0 0.00 0.00 0.00 77 1013.6
20260504035015 5 250 0.0 0.0 0.00 0.00 0.00 77 1013.5
20260504034515 5 250 0.0 0.0 0.00 0.00 0.00 78 1013.5
20260504034014 5 250 0.0 0.0 0.00 0.00 0.00 77 1013.5
20260504033515 6 250 0.0 0.0 0.00 0.00 0.00 76 1013.4
20260504033014 6 250 0.0 0.0 0.00 0.00 0.00 76 1013.4
20260504032514 6 250 0.0 0.0 0.00 0.00 0.00 76 1013.4
20260504032016 6 250 0.0 0.0 0.00 0.00 0.00 75 1013.4
20260504031514 6 250 0.0 0.0 0.00 0.00 0.00 75 1013.4
20260504031013 6 249 0.0 0.0 0.00 0.00 0.00 74 1013.3
20260504030512 6 249 0.0 0.0 0.00 0.00 0.00 74 1013.3
20260504030009 6 249 0.0 0.0 0.00 0.00 0.00 72 1013.2
20260504025510 6 248 0.0 0.0 0.00 0.00 0.00 72 1013.1
20260504025013 6 246 0.0 0.0 0.00 0.00 0.00 71 1013.2
20260504024510 6 249 0.0 0.0 0.00 0.00 0.00 71 1013.2
20260504024009 7 250 0.0 0.0 0.00 0.00 0.00 71 1013.3
20260504023508 7 250 0.0 0.0 0.00 0.00 0.00 71 1013.3
20260504023008 7 250 0.0 0.0 0.00 0.00 0.00 69 1013.3
20260504022507 7 250 0.0 0.0 0.00 0.00 0.00 68 1013.2
20260504022007 7 250 0.0 0.0 0.00 0.00 0.00 67 1013.2
20260504021511 7 250 0.0 0.0 0.00 0.00 0.00 67 1013.2
20260504021006 7 250 0.0 0.0 0.00 0.00 0.00 66 1013.2
20260504020506 7 250 0.0 0.0 0.00 0.00 0.00 64 1013.2
20260504020005 8 250 0.0 0.0 0.00 0.00 0.00 63 1013.2
20260504015504 8 250 0.0 0.0 0.00 0.00 0.00 62 1013.2
20260504015004 8 250 0.0 0.0 0.00 0.00 0.00 62 1013.1
20260504014504 8 250 0.0 0.0 0.00 0.00 0.00 59 1013.1
20260504014104 8 250 0.0 0.0 0.00 0.00 0.00 61 1013.1
20260504013503 9 250 0.0 0.0 0.00 0.00 0.00 60 1013.0
20260504013004 9 250 0.0 0.0 0.00 0.00 0.00 57 1013.0
20260504012504 10 250 0.0 0.0 0.00 0.00 0.00 57 1013.0
20260504012001 10 250 0.0 0.0 0.00 0.00 0.00 55 1012.9
20260504011502 10 250 0.0 0.0 0.00 0.00 0.00 53 1013.0
20260504011004 10 250 0.0 0.0 0.00 0.00 0.00 53 1012.9
20260504010501 11 250 0.0 0.0 0.00 0.00 0.00 51 1012.8
20260504010101 11 250 0.0 0.0 0.00 0.00 0.00 52 1012.8
20260504005559 11 250 0.0 0.0 0.00 0.00 0.00 49 1012.8
20260504005102 11 250 0.0 0.0 0.00 0.00 0.00 49 1012.8
20260504004601 12 250 0.0 0.0 0.00 0.00 0.00 44 1012.7
20260504004058 12 250 0.0 0.0 0.00 0.00 0.00 43 1012.7
20260504003601 12 250 0.0 0.0 0.00 0.00 0.00 43 1012.6
20260504003057 12 257 0.0 0.0 0.00 0.00 0.00 42 1012.6
20260504002558 13 257 0.0 0.0 0.00 0.00 0.00 41 1012.5
20260504002057 13 257 0.0 0.0 0.00 0.00 0.00 40 1012.6
20260504001606 13 257 0.0 0.0 0.00 0.00 0.00 39 1012.6
20260504001057 13 232 0.0 0.0 0.00 0.00 0.00 39 1012.5
20260504000556 13 259 0.0 0.0 0.00 0.00 0.00 38 1012.4
20260504000058 13 277 0.0 0.0 0.00 0.00 0.00 38 1012.3
20260503235555 13 269 0.0 0.0 0.00 0.00 0.00 38 1012.2
20260503235055 14 262 0.0 0.0 0.00 0.00 0.00 38 1012.2
20260503234655 14 225 0.0 0.0 0.00 0.00 0.00 38 1012.2
20260503234054 14 292 0.0 0.0 0.00 0.00 0.00 36 1012.1
20260503233554 14 168 0.0 0.0 0.00 0.00 0.00 37 1012.1
20260503233059 15 226 0.0 0.0 0.00 0.00 0.00 37 1012.2
20260503232553 15 294 0.0 0.0 0.00 0.00 0.00 36 1012.1
20260503232053 15 297 0.0 0.0 0.00 0.00 0.00 35 1012.0
20260503231554 15 267 0.0 0.0 0.00 0.00 0.00 36 1012.0
20260503231053 15 288 0.0 0.0 0.00 0.00 0.00 35 1012.0
20260503230553 15 290 0.0 0.0 0.00 0.00 0.00 34 1012.0
20260503230052 15 176 0.0 0.0 0.00 0.00 0.00 34 1011.9
20260503225548 15 238 0.0 0.0 0.00 0.00 0.00 35 1011.9
20260503225050 15 211 0.0 0.0 0.00 0.00 0.00 34 1011.9
20260503224549 16 266 0.0 0.0 0.00 0.00 0.00 33 1012.0
20260503224048 16 332 0.0 0.0 0.00 0.00 0.00 34 1012.0
20260503223549 16 190 0.0 0.0 0.00 0.00 0.00 34 1011.9
20260503223050 16 192 0.0 0.0 0.00 0.00 0.00 33 1012.0
20260503223048 16 190 0.0 0.0 0.00 0.00 0.00 33 1012.0
20260503222548 16 235 0.0 0.0 0.00 0.00 0.00 34 1012.0
20260503222046 16 307 0.0 0.0 0.00 0.00 0.00 34 1011.9
20260503221548 16 239 0.0 0.0 0.00 0.00 0.00 35 1012.0
20260503221045 16 193 0.0 0.0 0.00 0.00 0.00 32 1011.9
20260503220545 16 338 0.0 0.0 0.00 0.00 0.00 33 1012.0
20260503220045 16 250 0.0 0.0 0.00 0.00 0.00 33 1012.1
20260503215540 16 184 0.0 0.0 0.00 0.00 0.00 32 1012.1
20260503215040 16 273 0.0 0.0 0.00 0.00 0.00 34 1012.0
20260503214540 16 188 0.0 0.0 0.00 0.00 0.00 33 1011.9
20260503214040 16 244 0.0 0.0 0.00 0.00 0.00 35 1011.9
20260503213539 16 329 0.0 0.0 0.00 0.00 0.00 34 1011.8
20260503213043 16 227 0.0 0.0 0.00 0.00 0.00 34 1012.0
20260503212537 16 230 0.0 0.0 0.00 0.00 0.00 35 1011.9
20260503212035 16 277 0.0 0.0 0.00 0.00 0.00 35 1011.9
20260503211537 16 217 0.0 0.0 0.00 0.00 0.00 38 1011.9
20260503211034 16 275 0.0 0.0 0.00 0.00 0.00 34 1011.9
20260503210536 15 247 0.0 0.0 0.00 0.00 0.00 36 1011.9
20260503210035 15 320 0.0 0.0 0.00 0.00 0.00 35 1012.0
20260503205504 16 300 0.0 0.0 0.00 0.00 0.00 34 1012.0
20260503205005 16 281 0.0 0.0 0.00 0.00 0.00 36 1012.0
20260503204502 15 294 0.0 0.0 0.00 0.00 0.00 37 1012.0
20260503204002 15 169 0.0 0.0 0.00 0.00 0.00 38 1012.0
20260503203502 15 254 0.0 0.0 0.00 0.00 0.00 35 1012.0
20260503203101 15 324 0.0 0.0 0.00 0.00 0.00 36 1012.1
20260503202558 15 324 0.0 0.0 0.00 0.00 0.00 35 1012.1
20260503202101 15 294 0.0 0.0 0.00 0.00 0.00 37 1012.1
20260503201557 15 244 0.0 0.0 0.00 0.00 0.00 36 1012.2
20260503201056 15 312 0.0 0.0 0.00 0.00 0.00 35 1012.2
20260503200558 15 295 0.0 0.0 0.00 0.00 0.00 36 1012.3
20260503200056 15 5 0.0 0.0 0.00 0.00 0.00 36 1012.4
20260503195556 15 340 0.0 0.0 0.00 0.00 0.00 35 1012.4
20260503195055 15 242 0.0 0.0 0.00 0.00 0.00 35 1012.3
20260503194556 15 317 0.0 0.0 0.00 0.00 0.00 36 1012.5
20260503194055 15 238 0.0 0.0 0.00 0.00 0.00 41 1012.5
20260503193556 15 220 0.0 0.0 0.00 0.00 0.00 35 1012.6
20260503193109 15 279 0.0 0.0 0.00 0.00 0.00 34 1012.6
20260503192524 15 170 0.0 0.0 0.00 0.00 0.00 34 1012.6
20260503192023 15 311 0.0 0.0 0.00 0.00 0.00 35 1012.7
20260503191523 15 271 0.0 0.0 0.00 0.00 0.00 38 1012.7
20260503191022 15 329 0.0 0.0 0.00 0.00 0.00 36 1012.8
20260503190523 15 288 0.0 0.0 0.00 0.00 0.00 37 1012.9
20260503190039 15 233 0.0 0.0 0.00 0.00 0.00 35 1013.0
20260503185621 15 222 0.0 0.0 0.00 0.00 0.00 35 1013.1
20260503185054 15 203 0.0 0.0 0.00 0.00 0.00 36 1013.1
20260503184556 15 188 0.0 0.0 0.00 0.00 0.00 35 1013.1
20260503184052 15 340 0.0 0.0 0.00 0.00 0.00 39 1013.2
20260503183552 15 319 0.0 0.0 0.00 0.00 0.00 34 1013.3
20260503183100 15 263 0.0 0.0 0.00 0.00 0.00 34 1013.3
20260503182546 15 340 0.0 0.0 0.00 0.00 0.00 40 1013.4
20260503182043 15 293 0.0 0.0 0.00 0.00 0.00 36 1013.5
20260503181543 15 292 0.0 0.0 0.00 0.00 0.00 35 1013.6
20260503181043 14 273 0.0 0.0 0.00 0.00 0.00 37 1013.5
20260503180543 14 196 0.0 0.0 0.00 0.00 0.00 38 1013.4
20260503180053 14 169 0.0 0.0 0.00 0.00 0.00 36 1013.5
20260503175543 15 298 0.0 0.0 0.00 0.00 0.00 35 1013.6
20260503175040 14 16 0.0 0.0 0.00 0.00 0.00 38 1013.6
20260503174539 14 313 0.0 0.0 0.00 0.00 0.00 38 1013.7
20260503174041 14 292 0.0 0.0 0.00 0.00 0.00 40 1013.7
20260503173541 14 238 0.0 0.0 0.00 0.00 0.00 36 1013.7
20260503173051 14 339 0.0 0.0 0.00 0.00 0.00 39 1013.8
20260503172537 13 295 0.0 0.0 0.00 0.00 0.00 41 1013.6
20260503172032 13 263 0.0 0.0 0.00 0.00 0.00 43 1013.9
20260503171539 13 11 0.0 0.0 0.00 0.00 0.00 42 1014.0
20260503171031 13 65 0.0 0.0 0.00 0.00 0.00 36 1013.9
20260503170531 13 277 0.0 0.0 0.00 0.00 0.00 39 1014.0
20260503151010 11 313 0.0 0.0 0.00 0.00 0.00 41 1015.1
20260503150504 11 253 0.0 0.0 0.00 0.00 0.00 40 1015.0
20260503131059 -17 0.0 0.0 0.00 0.00 0.00 1015.4
20260503130558 -17 0.0 0.0 0.00 0.00 0.00 1015.4
20260503130104 -17 0.0 0.0 0.00 0.00 0.00 1015.4
20260503110553 5 321 0.0 0.0 0.00 0.00 0.00 65 1014.8